Flag for Brunei Weather past 2 weeks in Bandar Seri Begawan, Brunei

Now
77 °F

Passing clouds.


Feels Like: 78 °F
Forecast: 77 / 88 °F
Wind: 2 mph from South

Location: Brunei Airport

Current Time: Sep 23, 2014 at 5:26:14 AM

Latest Report: Sep 23, 2014 at 5:00 AM


Visibility: N/A

Pressure: 29.83 "Hg

Humidity: 100%

Dew point: 77 °F

Location of Bandar Seri BegawanLocation

Historic Weather in Bandar Seri Begawan — Graph

°F

Bandar Seri Begawan temperature yesterday

Maximum temperature yesterday: 90 °F (at 11:00 AM)
Minimum temperature yesterday: 79 °F (at 3:00 AM)
Average temperature yesterday: 84 °F

Past Weeks' High & Low Weather Summary

 TemperatureHumidityPressure
High93 °F (Sep 17, 3:30 PM)100% (Sep 8, 5:00 AM)29.95 "Hg (Sep 8, 5:00 AM)
Low73 °F (Sep 8, 5:00 AM)46% (Sep 9, 11:30 AM)29.25 "Hg (Sep 19, 7:30 PM)
Average83 °F80%29.83 "Hg
* Reported Sep 8 4:00 AM — Sep 23 4:00 AM, Bandar Seri Begawan, Weather by CustomWeather, © 2014

Note: Actual official high and low records may vary slightly from our data, if they occured in-between our weather recording intervals... More about our weather records

Advertising

Bandar Seri Begawan weather history for previous 24 hours

 ConditionsComfort  
Time TempWeatherWind HumidityBarometerVisibility
4:00 AM
Sep 23
79 °FPassing clouds.2 mph94%29.83 "HgN/A
3:30 AM79 °FPassing clouds.1 mph94%29.83 "HgN/A
3:00 AM79 °FPartly cloudy.2 mph94%29.83 "HgN/A
2:30 AM79 °FPartly cloudy.1 mph94%29.83 "HgN/A
2:00 AM79 °FPassing clouds.2 mph94%29.86 "HgN/A
1:30 AM79 °FPassing clouds.2 mph94%29.86 "HgN/A
1:00 AM79 °FPassing clouds.5 mph94%29.86 "HgN/A
12:30 AM79 °FPassing clouds.5 mph94%29.89 "HgN/A
12:00 AM81 °FPassing clouds.3 mph89%29.89 "HgN/A
11:30 PM
Sep 22
81 °FPassing clouds.2 mph89%29.89 "HgN/A
11:00 PM81 °FThunderstorms. Passing clouds.2 mph89%29.89 "HgN/A
10:30 PM81 °FThunderstorms. Passing clouds.2 mph89%29.89 "HgN/A
10:00 PM81 °FThunderstorms. Partly cloudy.5 mph84%29.89 "HgN/A
9:30 PM82 °FThunderstorms. Partly cloudy.12 mph79%29.89 "HgN/A
9:00 PM84 °FThunderstorms. Passing clouds.3 mph79%29.86 "HgN/A
8:30 PM84 °FPassing clouds.6 mph79%29.86 "HgN/A
8:00 PM84 °FPassing clouds.5 mph79%29.86 "HgN/A
7:30 PM84 °FPartly cloudy.6 mph79%29.83 "HgN/A
7:00 PM84 °FPartly cloudy.3 mph79%29.83 "HgN/A
6:30 PM84 °FPartly cloudy.1 mph79%29.83 "HgN/A
6:00 PM86 °FBroken clouds.6 mph75%29.80 "HgN/A
5:30 PM86 °FBroken clouds.7 mph75%29.80 "HgN/A
5:00 PM86 °FPartly sunny.8 mph75%29.80 "HgN/A
4:30 PM86 °FPartly sunny.8 mph75%29.80 "HgN/A
4:00 PM88 °FPartly sunny.10 mph70%29.77 "HgN/A
3:30 PM88 °FPartly sunny.9 mph70%29.80 "HgN/A
3:00 PM88 °FPartly sunny.10 mph66%29.80 "HgN/A
2:30 PM88 °FPartly sunny.8 mph70%29.80 "Hg6 mi
2:00 PM90 °FScattered showers. Partly sunny.7 mph67%29.80 "Hg5 mi
1:30 PM88 °FScattered showers. Partly sunny.5 mph75%29.83 "Hg5 mi
1:00 PM84 °FRain showers. Broken clouds.12 mph79%29.83 "Hg2 mi
12:45 PM86 °FLots of rain. Broken clouds.6 mph75%29.86 "Hg1 mi
12:30 PM88 °FBroken clouds.7 mph70%29.83 "HgN/A
12:00 PM90 °FBroken clouds.6 mph67%29.86 "HgN/A
11:30 AM88 °FBroken clouds.2 mph70%29.86 "HgN/A
11:00 AM90 °FBroken clouds.6 mph67%29.89 "HgN/A
10:30 AM88 °FBroken clouds.2 mph66%29.89 "HgN/A
10:00 AM88 °FBroken clouds.5 mph70%29.92 "HgN/A
9:30 AM86 °FPartly sunny.5 mph75%29.92 "HgN/A
9:00 AM84 °FPartly sunny.5 mph79%29.92 "HgN/A
8:30 AM84 °FPartly sunny.5 mph84%29.92 "HgN/A
8:00 AM82 °FPartly sunny.2 mph89%29.92 "HgN/A
7:30 AM81 °FPartly sunny.3 mph94%29.89 "HgN/A
7:00 AM79 °FPartly sunny.1 mph94%29.89 "HgN/A
6:30 AM79 °FBroken clouds.2 mph94%29.89 "HgN/A
6:00 AM79 °FPartly cloudy.1 mph94%29.86 "HgN/A
5:30 AM79 °FPassing clouds.1 mph94%29.86 "HgN/A
5:00 AM79 °FPartly cloudy.2 mph94%29.86 "HgN/A
Weather by CustomWeather, © 2014

See weather overviewHow to use our weather pages